Weather Roundup
Issued by NWS Springfield, MO

Home | Current Version | Previous Version | Text Only | Print | Product List | Glossary On
Versions: 1 2 3 4 5 6 7 8 9 10 11 12 13 14 15 16 17 18 19 20 21 22 23 24 25 26 27 28 29 30 31 32 33 34 35 36 37 38 39 40 41 42 43 44 45 46 47 48 49 50
000
NZUS99 KSGF 181207
HRRSGF

HOURLY WEATHER
NATIONAL WEATHER SERVICE SPRINGFIELD MO
700 AM CDT SAT APR 18 2015

......SGF CWA......

CITY           SKY/WX    TMP DP  RH WIND       PRES   REMARKS
SPRINGFIELD    CLOUDY    61  57  87 SE10      29.94R
6HR MIN TEMP:  61; 6HR MAX TEMP:  65;

JOPLIN         TSTM      60  59  96 VRB6      29.94R FOG
6HR MIN TEMP:  61; 6HR MAX TEMP:  64; 6HR PCP:  0.10;

WEST PLAINS    CLOUDY    62  60  93 SE3       29.99S FOG
6HR MIN TEMP:  61; 6HR MAX TEMP:  63;

ROLLA          CLOUDY    59  58  96 SE8       29.97S FOG
6HR MIN TEMP:  59; 6HR MAX TEMP:  65;

OSAGE BEACH    CLOUDY    63  57  82 SE5       29.96S
BRANSON        CLOUDY    57  57 100 CALM      29.96S

......SURROUNDING SGF CWA......

CITY           SKY/WX    TMP DP  RH WIND       PRES   REMARKS
CHANUTE        TSTM      61  60  97 SW17      29.95R FOG
PARSONS        LGT RAIN  62  59  90 NW6       29.92F
COFFEYVILLE    CLOUDY    63  57  81 N9        29.90S
EMPORIA        LGT RAIN  58  56  93 N3        29.91R
GROVE OK       CLOUDY    64  64 100 CALM      29.93S
ROGERS AR      CLOUDY    61  59  93 SE6       29.94S
SILOAM SPRINGS CLOUDY    61  55  82 CALM      29.95R
HARRISON AR    CLOUDY    57  57 100 SE8       29.95F
NEAR YELLVILLE CLOUDY    57 N/A N/A CALM      29.93F VSB<1/4

......KANSAS AND MISSOURI......

CITY           SKY/WX    TMP DP  RH WIND       PRES   REMARKS
KANSAS CTY INT CLOUDY    62  56  80 E8        29.90F
DOWNTOWN KC    CLOUDY    62  56  80 E6        29.90F
COLUMBIA       CLOUDY    61  58  90 SE6       29.97R
SEDALIA        CLOUDY    61  56  83 E7        29.95S
ST JOSEPH      CLOUDY    60  55  83 E3        29.91S
ST LOUIS       CLOUDY    61  56  83 E3        30.01R HAZE
SPIRIT OF STL  CLOUDY    55  53  93 CALM      29.99S FOG
KIRKSVILLE     CLOUDY    60  56  86 E6        29.97S
WICHITA        CLOUDY    61  58  90 S6        29.92R
TOPEKA         CLOUDY    58  56  93 CALM      29.91S
OLATHE         CLOUDY    61  58  90 SE5       29.90S

......TENNESSEE......

CITY           SKY/WX    TMP DP  RH WIND       PRES   REMARKS
MEMPHIS        CLOUDY    62  59  90 E5        29.95F FOG
NASHVILLE      MOCLDY    58  57  97 N5        30.02F

......ARKANSAS.......

CITY           SKY/WX    TMP DP  RH WIND       PRES   REMARKS
FAYETTEVILLE   LGT RAIN  62  60  93 CALM      29.93F
FT SMITH       CLOUDY    64  60  87 NW3       29.92R
LITTLE ROCK    CLOUDY    63  59  87 NE3       29.93S FOG

......OKLAHOMA.......

CITY           SKY/WX    TMP DP  RH WIND       PRES   REMARKS
TULSA          LGT RAIN  62  60  93 S8        29.92R FOG
PONCA CITY     CLOUDY    62  59  90 CALM      29.90S
MCALESTER      CLOUDY    61  60  97 E3        29.92F
OKLAHOMA CITY  MOCLDY    59  54  83 CALM      29.89F

......IOWA............

CITY           SKY/WX    TMP DP  RH WIND       PRES   REMARKS
DES MOINES     CLOUDY    62  57  83 NE5       29.98R
QUAD CITIES    PTCLDY    49  45  86 CALM      30.01R

......ILLINOIS........

CITY           SKY/WX    TMP DP  RH WIND       PRES   REMARKS
QUINCY         MOCLDY    59  54  83 SE7       29.99S HAZE
CHICAGO        PTCLDY    54  47  77 CALM      30.04R




USA.gov is the U.S. government's official web portal to all federal, state and local government web resources and services.